Location: Lavardac
(44.1778°N, 0.2983°E)
Time: 20:27:39
(UTC+00:00)

STARLINK-1340 - Pass Details

Date: 06 June 2020
Orbit: 378 x 381 km, 53.0° (Epoch: 09 July)

Event Time Altitude Azimuth Distance (km) Brightness Sun altitude
Rises 20:36:31 0° 198° (SSW) 2,237 6.5 -8.8°
Reaches altitude 10° 20:38:56 10° 179° (S) 1,390 5.3 -9.1°
Maximum altitude 20:41:10 18° 133° (SE) 1,010 4.3 -9.4°
Drops below altitude 10° 20:43:25 10° 87° (E) 1,399 5.3 -9.7°
Sets 20:45:52 0° 68° (ENE) 2,258 6.5 -10.0°
